sat.trackr.live / text

‹ back to catalog

KL-ALPHA A

NORAD 44785 · 2019-077A

PAYLOAD ACTIVE UNKNOWN

§ Identity

Operator
Country
GER
Launch date
2019-11-17
Launch site
JSC
Launch vehicle
Mass (kg)
RCS (m²)

External: N2YO · Heavens-Above · Gunter

§ Orbital elements

Epoch: 2026-09-13T05:20:55.381344Z

Period
106.19 min
Inclination
88.9301°
Eccentricity
0.0009531
Mean motion
13.56049490 rev/d
Perigee alt
1,043.0 km
Apogee alt
1,057.2 km
Semi-major
7,428.2 km
B*
-9.9318e-7
RAAN
212.9449°
Arg perigee
203.4943°
Mean anomaly
156.5777°
Rev number
33,766

§ Raw data

KL-ALPHA A1 44785U 19077A   26256.22286321  .00000012  00000+0 -99318-6 0  99982 44785  88.9301 212.9449 0009531 203.4943 156.5777 13.56049490337667

JSON: /api/v1/satellites/44785 · /tle

For live sub-satellite position, see the globe view (requires WebGL).

§ Visibility from observer

Set your observer location to see the next 7 days of passes ≥ 10°. The values pass through the URL so the page stays shareable.

No JS? Fill the form by hand. The geolocation button needs JavaScript.

§ Radio — SatNOGS DB

ModeDescriptionDownlinkUplink
BPSK Mode S 2.220 GHz

1 transmitter · refreshed weekly from db.satnogs.org